Погода в Алчевске

Украина / Луганская область     48°28′08″N   38°47′50″E
темп.,
°C
ветер,
м/с
пор.,
м/с
влажн.,
%
обл.,
%
осадки,
мм/ч
давл.,
гПа
погр.,
м
2 июля, сб
сб200:00+15св48670 0.0 1015196
03:00+11с22770 0.0 101624
06:00+10с510720 0.0 1018448
09:00+16с710500 0.0 10181016
12:00+21с811380 0.0 10171781
15:00+22с810352 0.0 10162156
18:00+22ссз710429 0.0 10162426
21:00+18ссз612572 0.1 1017578
3 июля, вс
вс300:00+15ссз410710 0.0 1017279
03:00+13зсз37810 0.0 1017110
06:00+14сз410755 0.0 1017274
09:00+21ссз69491 0.0 10171099
12:00+24с6940100 0.0 10162389
15:00+24ссз574398 0.0 10161604
18:00+24с574538 0.0 10161006
21:00+17вюв01815 0.4 101711
4 июля, пн
пн400:00+17з33770 0.3 101623
03:00+15зсз35880 0.4 101669
06:00+17зсз26880 0.0 1016173
09:00+23с35655 0.0 1016783
12:00+27св45402 0.0 10162209
15:00+30ссв463145 0.0 10152890
18:00+29с653419 0.0 10152450
21:00+22ссв36553 0.0 1017119
5 июля, вт
вт500:00+19в22600 0.0 101714
03:00+16в22670 0.0 101812
06:00+18всв2262100 0.0 101994
09:00+22в35483 0.0 1019539
12:00+27в44310 0.0 10191842
15:00+28в34290 0.0 10182438
18:00+28юв14300 0.0 10182086
21:00+22зсз114419 0.0 101811
6 июля, ср
ср600:00+19вюв22530 0.0 101812
03:00+18вюв22590 0.0 101911
06:00+20юв22530 0.0 101956
09:00+26вюв33350 0.0 1019800
12:00+29в44310 0.0 10182275
15:00+30в54260 0.0 10172326
18:00+29вюв44270 0.0 10172245
21:00+22вюв22400 0.0 101713